Theta_e
314 314 314 316 316 315 314 313 312 312 319 323 322 321 322 321 321 320 320 322 326 331 333 336 338 338 337 337 336 336 335 333
312 312 315 315 313 313 313 311 310 310 310 312 313 313 314 313 316 316 317 317 319 323 325 329 333 336 338 338 338 337 336 336
311 311 312 312 312 311 311 310 309 308 307 308 308 308 309 309 311 312 313 313 313 314 316 319 324 326 332 333 335 336 337 337
309 310 311 311 310 310 310 309 308 307 306 306 306 306 307 308 308 308 308 308 308 308 310 311 313 316 318 324 326 329 331 332
308 309 309 309 309 309 309 308 307 306 305 305 305 305 305 305 304 304 304 304 304 304 304 305 305 307 309 311 315 319 326 330
308 308 308 308 308 308 308 307 306 305 304 303 303 304 303 302 302 302 302 302 302 302 302 302 303 303 304 305 307 310 314 319
307 308 308 307 308 307 307 306 305 303 303 303 302 302 301 301 300 300 300 300 300 300 300 300 301 301 302 303 303 304 306 308
307 307 307 307 307 307 305 305 304 303 302 301 301 300 300 299 299 298 298 298 298 298 298 299 299 299 300 301 301 302 302 303
306 306 306 307 307 306 305 304 303 302 302 301 300 299 298 298 298 297 297 296 296 296 296 297 297 298 299 300 300 301 302 303
304 305 305 306 306 305 304 303 302 301 301 300 299 298 297 297 296 296 296 295 295 294 294 295 295 295 297 299 300 301 302 305
303 304 304 304 305 304 303 302 301 300 300 299 298 297 296 295 295 294 295 294 293 293 293 293 293 294 295 298 300 301 303 303
302 302 303 303 303 302 301 300 299 299 298 297 296 295 295 294 293 293 293 292 292 292 292 292 293 293 295 297 300 302 302 302
301 301 301 302 302 300 300 298 298 298 297 296 295 294 293 292 292 292 292 291 291 291 291 292 293 293 294 295 299 303 303 299
300 300 300 300 301 300 298 297 296 295 295 294 293 292 291 291 291 290 290 290 290 290 291 291 292 292 292 293 295 296 297 298
299 298 298 298 299 299 297 296 295 294 293 292 291 290 290 290 290 289 289 288 289 289 290 291 291 291 292 292 293 294 293 296
298 297 298 297 297 297 297 295 293 293 292 291 290 290 289 288 288 288 287 288 288 289 289 290 289 290 291 290 291 291 293 294
297 297 297 297 296 296 295 293 293 292 291 290 290 288 288 287 287 286 286 287 287 288 288 287 288 289 289 289 290 289 291 290
296 297 296 296 295 295 294 293 292 291 290 289 288 287 286 286 286 285 285 286 287 287 286 286 287 287 286 286 286 289 288 287
295 296 295 294 294 293 293 292 291 289 288 288 287 286 285 285 285 285 284 285 286 286 286 286 285 285 284 285 286 285 284 284
294 294 294 293 293 292 292 291 290 288 287 286 286 285 284 283 283 283 284 285 285 286 284 285 284 283 283 284 282 283 282 283
Wind_Speed
8 9 10 11 9 8 9 11 11 8 6 5 6 7 7 7 8 8 8 6 4 4 5 6 9 11 12 12 13 13 15 15
10 10 10 10 8 8 9 12 12 10 9 7 6 6 6 6 6 6 5 6 6 6 5 3 4 6 9 12 13 14 15 17
10 10 9 10 8 7 7 11 12 12 12 11 9 8 8 8 10 7 7 8 8 7 6 6 5 6 7 9 10 12 14 17
9 8 8 8 7 5 6 9 10 11 11 11 11 11 11 10 10 11 11 10 11 12 11 10 10 10 9 8 10 12 14 16
10 8 8 8 9 7 8 9 10 12 13 13 12 11 12 13 14 15 15 15 15 15 15 14 13 13 12 12 12 13 14 15
10 9 9 10 10 8 9 10 12 15 17 16 15 15 15 17 18 18 18 19 18 18 19 17 15 14 13 14 15 16 17 19
11 9 10 10 10 9 11 13 15 16 18 18 18 18 19 18 20 20 20 19 19 20 20 20 19 18 16 15 17 16 17 19
10 10 10 10 11 11 13 13 14 16 19 20 19 19 18 18 19 20 21 21 21 20 20 21 20 21 21 20 18 17 18 18
11 11 10 10 11 12 12 12 13 15 17 16 18 19 19 19 20 20 20 21 22 23 25 24 23 24 25 22 21 18 17 16
12 10 11 11 12 13 12 12 12 14 14 15 18 19 20 19 20 20 18 21 23 25 28 29 28 31 30 25 22 17 15 14
14 11 13 14 14 15 12 12 13 13 13 14 16 18 20 20 20 19 18 20 23 24 26 27 26 31 31 25 16 14 10 15
13 11 10 11 14 15 15 15 15 14 15 15 17 19 20 19 20 20 21 22 24 25 24 25 23 30 28 21 13 13 4 13
13 10 9 7 12 14 14 15 14 13 13 13 16 18 20 21 20 20 21 23 24 23 21 22 24 32 19 15 11 11 4 22
13 11 9 8 6 11 10 12 14 14 12 14 16 18 20 20 20 21 20 21 22 22 24 20 18 26 16 7 5 9 9 11
14 12 10 11 10 12 13 11 10 11 13 14 17 17 19 19 18 20 19 20 21 19 21 20 17 19 20 10 4 4 16 7
13 13 13 13 11 10 10 12 14 12 12 12 12 16 18 18 17 18 19 18 19 17 18 18 16 15 9 14 6 7 4 7
16 14 14 13 13 12 13 15 14 12 10 12 12 15 17 17 17 17 17 16 17 16 18 18 17 15 14 13 8 10 5 5
17 17 16 13 13 14 14 13 11 12 11 12 11 14 16 16 16 17 15 16 16 16 17 17 17 15 16 16 13 7 12 8
18 18 18 15 14 14 13 15 12 12 11 11 11 14 16 16 15 16 15 14 15 14 17 17 18 17 17 17 15 15 16 12
19 19 18 16 14 15 16 12 14 12 10 11 11 12 12 11 11 13 13 12 14 14 16 16 16 17 17 18 18 16 18 16
Wind_Direction
96 99 94 92 84 74 64 66 70 77 84 93 78 70 58 61 62 51 48 36 353 341 333 295 282 276 281 286 287 286 287 284
96 105 101 103 89 67 60 59 61 58 57 59 47 32 39 37 38 33 29 33 36 28 17 335 350 284 277 276 281 283 285 288
118 119 113 110 92 74 70 59 54 52 48 47 40 34 38 33 36 35 35 32 20 12 360 342 308 313 284 286 291 288 286 285
113 120 116 114 109 93 81 66 54 56 53 49 44 41 42 36 28 18 13 14 5 357 344 331 320 317 307 291 287 284 286 292
95 101 105 105 105 93 79 66 60 58 54 53 56 51 42 35 28 23 16 14 9 3 355 351 343 331 317 307 295 288 281 280
99 104 108 104 107 104 85 67 58 56 57 53 49 53 47 39 35 31 27 22 17 15 9 3 355 346 334 319 303 291 286 285
96 99 97 94 99 95 85 69 59 56 52 51 47 45 43 40 36 32 30 26 21 17 13 7 2 356 349 336 321 308 298 293
95 91 87 89 89 92 82 69 61 54 50 46 44 44 43 40 39 31 27 24 20 16 13 8 4 359 354 347 335 327 315 305
105 102 99 100 93 103 89 75 64 56 49 46 43 42 41 40 39 35 27 21 18 16 11 9 3 359 352 350 344 338 339 333
105 107 104 107 111 115 103 88 72 59 50 47 43 39 35 39 38 35 28 23 19 17 12 6 1 355 349 350 347 353 3 19
103 106 101 98 103 120 112 97 81 71 59 49 44 41 36 34 35 32 30 25 22 17 14 12 360 350 343 345 351 0 7 25
111 110 111 113 109 119 107 90 77 69 61 49 38 37 37 40 37 32 28 24 22 18 13 12 6 349 343 346 356 360 20 355
108 113 109 139 132 120 110 88 81 72 63 49 40 33 32 35 37 36 32 23 24 21 14 12 9 2 355 341 354 16 94 359
115 109 108 108 120 131 108 98 84 78 69 53 41 35 37 36 38 36 31 29 26 26 23 11 16 17 7 322 350 342 339 1
118 109 105 104 124 128 124 108 95 75 64 56 45 40 38 37 35 29 31 32 30 27 23 20 12 19 34 31 344 337 333 326
130 121 113 105 108 120 128 112 96 89 81 73 54 40 37 38 34 33 32 34 36 26 26 28 23 19 25 19 9 342 332 322
130 122 117 113 109 108 113 104 100 99 79 67 51 37 35 36 34 33 34 37 40 33 29 26 31 26 19 8 358 339 17 317
125 118 114 110 109 115 115 110 107 94 79 69 51 34 36 37 33 26 32 40 39 34 26 30 28 25 20 20 9 357 351 342
127 120 115 116 113 110 114 116 104 85 68 67 62 38 38 34 29 21 32 41 40 35 24 26 21 25 14 13 14 6 350 334
135 124 121 120 116 116 121 103 92 83 75 69 65 55 40 31 37 29 42 45 45 35 24 26 14 20 18 22 9 0 355 344